This is the latest recevied weather packets stored in our database for station/object IW7DVM-13. If no packets are shown the sender has not sent any weather packets the latest 1 day(s).
| Time | Temp. | Humidity | Pressure | Rain* | Wind** | Luminosity | Snow |
|---|---|---|---|---|---|---|---|
| 1777995003 | 18.33° C | 71% | 1011.1 hPa | 0 mm | 1.34 m/s, 140° | - | - |
| 1777994703 | 18.33° C | 71% | 1011 hPa | 0 mm | 1.34 m/s, 122° | - | - |
| 1777994403 | 18.33° C | 71% | 1011.1 hPa | 0 mm | 1.34 m/s, 146° | - | - |
| 1777994103 | 18.33° C | 71% | 1011 hPa | 0 mm | 1.34 m/s, 136° | - | - |
| 1777993803 | 18.33° C | 71% | 1011 hPa | 0 mm | 1.34 m/s, 139° | - | - |
| 1777993503 | 18.33° C | 71% | 1011 hPa | 0 mm | 0.89 m/s, 135° | - | - |
| 1777993203 | 17.78° C | 71% | 1011.3 hPa | 0 mm | 1.34 m/s, 137° | - | - |
| 1777992903 | 18.33° C | 71% | 1011.3 hPa | 0 mm | 1.34 m/s, 129° | - | - |
| 1777992603 | 18.33° C | 71% | 1011.3 hPa | 0 mm | 1.34 m/s, 125° | - | - |
| 1777992303 | 18.33° C | 71% | 1011.2 hPa | 0 mm | 0.89 m/s, 121° | - | - |
| 1777992003 | 18.33° C | 71% | 1011.2 hPa | 0 mm | 0.89 m/s, 120° | - | - |
| 1777991703 | 18.33° C | 71% | 1011.2 hPa | 0 mm | 1.79 m/s, 139° | - | - |
| 1777991403 | 18.33° C | 71% | 1011.3 hPa | 0 mm | 2.24 m/s, 136° | - | - |
| 1777991103 | 18.89° C | 71% | 1011.4 hPa | 0 mm | 1.34 m/s, 131° | - | - |
| 1777990803 | 18.89° C | 71% | 1011.4 hPa | 0 mm | 0.89 m/s, 127° | - | - |
| 1777990503 | 18.89° C | 71% | 1011.4 hPa | 0 mm | 0.89 m/s, 124° | - | - |
| 1777990203 | 18.89° C | 71% | 1011.4 hPa | 0 mm | 1.79 m/s, 137° | - | - |
| 1777989903 | 18.89° C | 71% | 1011.3 hPa | 0 mm | 1.34 m/s, 141° | - | - |
| 1777989603 | 18.89° C | 71% | 1011.3 hPa | 0 mm | 1.34 m/s, 147° | - | - |
| 1777989303 | 18.89° C | 71% | 1011.4 hPa | 0 mm | 1.79 m/s, 126° | - | - |
| 1777989003 | 18.89° C | 71% | 1011.4 hPa | 0 mm | 1.34 m/s, 129° | - | - |
| 1777988703 | 18.33° C | 71% | 1011.4 hPa | 0 mm | 1.79 m/s, 139° | - | - |
| 1777988403 | 18.89° C | 71% | 1011.5 hPa | 0 mm | 1.34 m/s, 139° | - | - |
| 1777988103 | 18.89° C | 71% | 1011.5 hPa | 0 mm | 0.89 m/s, 135° | - | - |
| 1777987803 | 18.89° C | 71% | 1011.6 hPa | 0 mm | 1.34 m/s, 137° | - | - |
* Rain latest hour (hover to see other rain measurements)
** Current wind speed in m/s (hover to see current wind gust speed)